Retour au catalogue

BREEZE-M R/B

ActifHEO
NORAD 28925·ROCKET BODY·🇷🇺 Russia

Lancé Dec 29, 2005 depuis Baikonur Cosmodrome

Loading…

Prochains Passages (prochaines 24 heures)

TLE

FraisSource: Space-Track

Époque: Sep 14, 2026, 12:42 UTC

1 28925U 05052B   26257.52920205 -.00000273  00000-0  00000+0 0  9997
2 28925  19.6015 309.4578 5367819 227.3345  70.8277  1.94152239146818

Suivez BREEZE-M R/B en temps réel avec AllMySat

Download on the App Store